Orbital Elements at Epoch 2459200.5 (2020-Dec-17.0) TDB
Reference: JPL 29 (heliocentric ecliptic J2000)
Element | Value | Uncertainty (1-sigma) | Units |
e | .1440015997484375 | 3.6731e-08 | |
a | 2.761014582279695 | 1.4153e-08 | au |
q | 2.363424065502655 | 1.0044e-07 | au |
i | 8.61890353088206 | 4.4334e-06 | deg |
node | 223.4681136533963 | 2.7306e-05 | deg |
peri | 197.9166831661008 | 3.1598e-05 | deg |
M | 281.2459185469687 | 1.8122e-05 | deg |
tp | 2459567.082768813835 (2021-Dec-18.58276881) | 8.5728e-05 | TDB |
period | 1675.72009396982 4.59 | 1.2885e-05 3.528e-08 | d yr |
n | .2148330149500992 | 1.6519e-09 | deg/d |
Q | 3.158605099056734 | 1.6191e-08 | au |
|
| | Orbit Determination Parameters
Additional Information
|